CAPE
0 0 0 0 0 0 0 0 0 0 0 0 0 0 0 34 6 92 0 14 1066 346 549 1152 1564 1260 1499 2101 2236 2289 2280 2305 2300 2226 2050 1729 1439 1069 781 380 74 6 0 0 0 0 0 0 0
0 0 0 0 0 0 0 0 0 0 0 0 0 0 19 59 33 13 19 67 1323 431 444 538 1679 1327 1319 1793 1993 2056 2085 2174 2221 2095 1786 1516 1292 961 469 80 26 0 0 0 0 0 0 0 0
0 0 0 0 0 0 0 0 0 0 8 0 2 10 42 109 84 22 44 559 1411 719 207 665 1740 1498 1301 1341 1658 1731 1814 1899 2000 1882 1665 1384 1120 777 308 84 46 0 0 0 0 0 0 0 0
0 0 0 0 0 0 0 0 0 17 87 0 4 5 53 147 77 97 42 485 1310 951 238 1504 1699 1622 1502 1258 1206 1348 1526 1639 1642 1538 1365 1183 801 546 253 96 60 25 0 0 0 0 0 0 5
0 0 0 0 0 0 0 0 0 28 32 0 0 0 47 125 182 42 110 315 729 945 454 1286 1605 1646 1660 1536 1197 996 1071 1159 1243 1247 1073 852 624 447 222 102 57 53 49 8 24 62 66 84 98
0 0 0 0 0 0 0 0 0 0 4 4 3 1 23 97 210 81 88 300 388 663 804 1339 1502 1566 1502 1506 1270 1057 981 947 921 916 884 738 606 358 193 127 102 93 112 127 130 130 183 233 259
0 0 0 0 0 0 0 0 0 0 0 0 0 4 83 99 195 67 55 101 224 493 1406 1368 1007 1327 1563 1409 1292 1143 1023 969 900 877 826 674 562 327 208 154 145 141 188 260 272 365 501 544 588
0 0 0 0 0 0 0 0 0 0 0 0 0 23 115 302 243 22 0 9 106 318 1247 1737 1297 728 608 729 1344 1143 1020 931 800 768 701 584 454 389 282 175 186 238 372 506 531 656 802 888 929
0 0 0 0 0 0 0 0 0 0 0 0 0 13 95 161 83 0 0 0 33 90 252 2025 1846 1041 344 247 697 1263 1057 966 806 740 683 424 147 115 58 85 74 370 519 668 741 852 1012 1099 1130
0 0 0 0 0 0 0 0 0 0 0 0 0 43 96 134 12 25 1 24 65 132 128 1057 2160 1087 408 103 395 827 811 712 592 318 284 245 86 15 0 34 131 379 645 772 939 1079 1147 988 579
0 0 0 0 0 0 0 0 0 0 0 0 0 24 70 235 169 193 34 26 119 202 251 612 2177 1864 974 532 854 874 394 381 404 300 170 205 66 27 35 0 26 335 507 378 672 751 756 513 550
0 0 0 0 0 0 0 2 10 0 0 0 0 15 80 112 379 250 143 135 168 210 78 682 2162 2683 2183 1194 1399 1413 1093 729 534 380 187 175 92 38 41 24 70 84 125 154 199 347 494 628 787
0 0 0 0 0 0 0 0 0 0 0 0 0 0 76 131 314 185 100 10 144 243 195 595 2482 3001 3377 3643 2564 1616 1374 1343 909 697 440 189 318 108 84 185 133 98 149 199 193 463 717 887 960
0 0 0 0 0 0 0 0 0 0 0 0 0 0 93 13 13 45 94 168 339 420 377 626 2636 3646 3673 3148 3338 4193 2650 1982 1619 1157 1007 671 501 459 334 215 287 483 219 322 277 501 882 1190 1382
0 0 0 0 0 0 0 0 0 0 0 0 0 0 0 102 25 18 91 324 381 324 378 761 856 3915 3746 3464 3532 2985 2994 2243 2434 1767 2096 1053 951 880 597 568 349 257 586 372 594 554 1054 1402 1658
0 0 0 0 0 0 0 0 0 0 0 0 0 1 11 1 4 16 65 497 805 860 780 1699 198 2878 4073 3765 3297 3161 2348 2462 2341 2050 2408 2185 1414 995 1518 740 764 775 535 976 680 1149 954 1214 1249
0 0 0 0 0 0 0 0 0 0 0 0 0 0 9 34 34 21 52 126 459 609 1016 1311 1315 1171 3587 3899 3113 3231 2919 2965 2231 2494 1982 2789 2016 1572 1328 1457 1233 1161 874 516 883 999 866 1200 1371
0 0 0 0 0 0 0 0 0 0 0 0 0 0 0 34 26 120 317 249 526 1628 2267 2108 2114 2317 3372 2776 2701 1904 1806 1960 2102 1845 2299 3003 2363 2095 1792 1836 1245 1805 924 889 1062 826 1018 1092 1214
0 0 0 0 0 0 0 0 0 0 0 0 0 0 0 0 0 80 58 444 208 1422 2250 2178 2238 2179 2868 2482 1477 1058 1143 1088 1670 1979 2668 3107 2599 2223 2177 1520 2072 1531 1281 971 1329 1411 1394 978 730
0 0 0 0 0 0 0 0 0 0 0 0 0 0 0 0 15 17 115 579 1451 1789 1696 1865 2399 2731 2595 1759 1317 1785 1506 741 1324 2292 2775 3162 2797 2323 2266 1889 1742 1668 1597 1508 1898 1355 793 760 1348
0 0 0 0 0 0 0 0 0 0 0 0 0 0 0 0 0 2 197 552 1244 1109 1475 1739 1844 1839 2129 1394 1495 1963 1672 2875 3326 2752 2813 2915 2667 2504 1970 1840 1702 2003 1503 1304 1657 1214 1011 665 1708
0 0 0 0 0 0 0 0 0 0 0 0 0 0 0 0 0 0 0 114 596 555 810 1825 1695 1490 1643 2298 1820 1748 1406 1446 2278 2945 2624 2630 2485 2290 2052 1876 1858 2356 1360 1714 1229 1179 760 1262 1377
0 1 2 1 0 0 0 0 0 0 0 0 0 0 0 0 0 0 0 0 10 46 59 366 1450 1817 1607 1820 1929 1395 2173 2191 3383 3237 3288 2340 2556 2074 1834 1723 1781 1721 1599 1674 985 1213 1569 1646 1121
13 3 19 17 13 0 0 0 0 0 0 0 0 19 8 0 0 0 0 0 0 0 19 318 617 767 1677 1979 2824 2487 2740 2478 2501 2932 2399 1798 1736 1471 1884 2070 1584 1596 1657 2056 1544 1764 1475 1229 959
118 37 0 0 0 0 0 0 0 0 0 0 0 7 3 8 38 5 0 0 0 0 0 0 678 1106 2062 1741 2593 1943 3059 2628 3993 2526 1885 1642 1341 1327 1879 1860 1840 1719 1862 2149 1801 1404 1254 1244 1201
46 1 37 0 0 0 6 0 0 1 0 0 0 0 27 17 0 2 0 0 0 0 0 112 524 1304 1681 1458 1510 2434 2359 2981 2845 1931 1713 1383 1171 1622 1794 1579 2018 2141 1947 1628 1543 1442 1580 1353 1156
133 68 27 16 117 88 31 0 0 0 0 0 0 3 47 24 0 1 0 0 0 4 401 332 483 765 974 1658 2227 2751 3001 3408 2677 2197 1927 1847 1791 1864 1888 2163 2069 1865 1628 1428 1655 1493 1162 1127 1103
217 93 158 216 118 0 30 12 8 2 34 0 7 37 26 139 30 75 330 542 681 1076 565 705 1043 1863 2512 2449 2849 3044 3443 3612 3007 2885 2547 2340 2418 2103 2315 2007 1967 1589 1403 1423 1348 1105 1118 990 913
207 247 173 125 96 36 75 14 102 197 18 1 5 50 256 67 4 242 1025 946 887 1869 2245 2564 2153 2663 2547 2445 2673 3009 3126 3286 3129 2749 2251 2351 2345 2070 2012 1677 1225 869 1089 1341 1248 988 972 757 683
148 179 179 67 47 102 81 63 169 0 27 0 0 116 67 228 1189 1044 1109 2011 1695 1574 2150 2714 2695 2201 2289 2716 2957 3089 2659 2603 2278 1908 1703 1946 1748 1646 1465 1378 1084 1102 855 960 1010 775 729 682 550
CIN
0 0 0 0 0 0 0 0 0 0 0 0 0 0 0 -35 -83 -45 0 -191 -235 -527 -688 -588 -492 -472 -374 -246 -188 -133 -110 -84 -69 -68 -68 -74 -82 -120 -127 -161 -252 -51 0 0 0 0 0 0 0
0 0 0 0 0 0 0 0 0 0 0 0 0 0 -67 -19 -79 -74 -51 -247 -284 -551 -719 -627 -479 -483 -421 -295 -213 -167 -132 -94 -79 -79 -96 -102 -101 -139 -177 -260 -306 0 0 0 0 0 0 0 0
0 0 0 0 0 0 0 0 0 0 -2 0 -92 -77 -43 -19 -55 -118 -207 -235 -306 -479 -723 -625 -481 -451 -450 -387 -282 -241 -175 -140 -102 -90 -102 -114 -126 -161 -211 -268 -305 0 0 0 0 0 0 0 0
0 0 0 0 0 0 0 0 0 -4 -7 0 -98 -55 -29 -39 -7 -189 -241 -223 -284 -403 -509 -557 -497 -441 -414 -392 -373 -298 -232 -194 -161 -136 -145 -150 -181 -207 -248 -288 -329 -379 0 0 0 0 0 0 -243
0 0 0 0 0 0 0 0 0 -5 -2 -0 0 0 -44 -43 -66 -103 -221 -204 -226 -290 -379 -562 -494 -446 -381 -370 -383 -368 -315 -269 -239 -210 -204 -212 -214 -222 -287 -312 -347 -356 -348 -201 -392 -343 -337 -317 -305
0 0 0 0 0 0 0 0 0 0 -8 -8 -2 -11 -13 -38 -104 -164 -159 -178 -206 -220 -314 -491 -511 -454 -410 -378 -382 -370 -347 -319 -296 -267 -233 -243 -240 -281 -322 -338 -357 -349 -312 -287 -268 -281 -255 -253 -243
0 0 0 0 0 0 0 0 0 0 0 0 0 -1 -4 -15 -49 -104 -162 -142 -125 -149 -256 -448 -549 -476 -397 -389 -379 -375 -363 -340 -321 -293 -271 -272 -268 -319 -345 -357 -353 -340 -304 -250 -224 -216 -195 -184 -160
0 0 0 0 0 0 0 0 0 0 0 0 0 -3 -2 -11 -21 -68 0 -120 -97 -122 -159 -287 -433 -527 -540 -479 -355 -380 -376 -359 -369 -340 -333 -311 -314 -319 -344 -373 -346 -303 -265 -216 -198 -173 -147 -120 -116
0 0 0 0 0 0 0 0 0 0 0 0 0 -9 -10 -10 -13 0 0 -18 -47 -53 -138 -161 -280 -462 -535 -497 -467 -357 -368 -372 -382 -381 -370 -399 -481 -477 -493 -453 -451 -281 -245 -195 -166 -143 -106 -87 -91
0 0 0 0 0 0 0 0 0 0 0 0 0 -3 -21 -10 -21 -33 -34 -5 -3 -14 -36 -74 -255 -368 -450 -376 -490 -449 -437 -458 -486 -544 -535 -508 -585 -655 -1 -524 -421 -302 -219 -166 -121 -99 -82 -106 -191
0 0 0 0 0 0 0 0 0 0 0 0 0 -5 -19 -10 -26 -20 -52 -2 -3 -12 -26 -50 -207 -318 -349 -289 -389 -450 -531 -546 -547 -580 -614 -578 -613 -649 -587 0 -295 -357 -275 -305 -196 -167 -176 -230 -190
0 0 0 0 0 0 0 -6 -3 0 0 0 -0 -1 -3 -18 -6 -6 -25 -3 -9 -23 -7 -141 -54 -178 -239 -217 -228 -325 -354 -458 -492 -548 -602 -582 -609 -667 -587 -565 -498 -535 -456 -449 -379 -306 -267 -218 -147
0 0 0 0 0 0 0 0 0 0 0 0 0 0 -6 -29 -17 -22 -22 -116 -46 -22 -32 -40 -93 -182 -180 -119 -113 -177 -241 -327 -427 -473 -548 -512 -523 -593 -559 -427 -410 -509 -452 -456 -403 -265 -209 -156 -107
0 0 0 0 0 0 0 0 0 0 0 0 0 0 -11 -81 -17 -30 -23 -55 -62 -85 -56 -45 -100 -189 -192 -183 -159 -83 -177 -201 -282 -341 -413 -509 -285 -485 -439 -450 -384 -273 -434 -355 -392 -267 -144 -102 -60
0 0 0 0 0 0 0 0 0 0 0 0 0 0 0 -28 -28 -46 -51 -69 -93 -149 -128 -108 -84 -117 -200 -210 -190 -196 -168 -187 -153 -198 -199 -403 -328 -328 -226 -332 -374 -384 -252 -343 -262 -276 -128 -69 -35
0 0 0 0 0 0 0 0 0 0 0 0 0 -94 -78 -15 -2 -8 -14 -38 -36 -75 -78 -62 -132 -98 -163 -197 -201 -198 -233 -190 -185 -174 -117 -169 -339 -260 -210 -291 -283 -254 -294 -155 -187 -125 -131 -88 -74
0 0 0 0 0 0 0 0 0 0 0 0 0 0 -116 -76 -58 -34 -27 -62 -79 -138 -142 -93 -104 -105 -117 -137 -186 -173 -193 -165 -195 -149 -166 -92 -226 -281 -239 -169 -171 -198 -205 -249 -169 -139 -154 -82 -62
0 0 0 0 0 0 0 0 0 0 0 0 0 0 0 -74 -93 -47 -36 -59 -64 -85 -80 -85 -110 -108 -62 -113 -178 -226 -230 -219 -202 -205 -146 -78 -142 -202 -204 -125 -198 -97 -193 -177 -140 -187 -119 -114 -74
0 0 0 0 0 0 0 0 0 0 0 0 0 0 0 0 0 -38 -34 -53 -82 -142 -127 -158 -159 -172 -98 -79 -139 -242 -243 -274 -211 -199 -157 -71 -124 -153 -151 -203 -84 -115 -141 -166 -113 -80 -79 -131 -125
0 0 0 0 0 0 0 0 0 0 0 0 0 0 0 0 -33 -79 -63 -59 -81 -133 -157 -169 -148 -176 -154 -161 -266 -199 -211 -236 -185 -138 -132 -81 -93 -132 -115 -147 -120 -124 -87 -107 -44 -103 -157 -127 -39
0 0 0 0 0 0 0 0 0 0 0 0 0 0 0 0 0 -13 -32 -50 -48 -84 -120 -114 -186 -215 -218 -294 -253 -214 -205 -100 -47 -60 -99 -100 -82 -91 -152 -152 -119 -86 -104 -120 -70 -117 -100 -102 -27
0 0 0 0 0 0 0 0 0 0 0 0 0 0 0 0 0 0 -11 -65 -62 -63 -65 -57 -136 -229 -266 -201 -180 -201 -182 -195 -111 -49 -86 -109 -97 -92 -120 -144 -89 -50 -125 -63 -125 -98 -129 -33 -18
0 -0 -1 -0 0 0 0 0 0 0 0 0 0 0 0 0 0 0 0 0 -180 -208 -249 -205 -137 -140 -175 -212 -160 -211 -63 -118 -27 -39 -55 -132 -76 -127 -145 -149 -93 -92 -52 -51 -166 -66 -17 -21 -34
-3 -3 -1 -0 0 0 0 0 0 0 0 0 0 0 -1 0 0 0 0 0 0 0 -153 -163 -168 -204 -148 -125 -56 -67 -37 -52 -36 -41 -120 -173 -163 -186 -97 -60 -98 -86 -44 -12 -48 -19 -23 -29 -33
-1 -1 0 0 0 0 0 0 0 0 0 0 -0 -2 -6 -14 -5 -4 0 0 0 0 0 0 -118 -139 -102 -147 -64 -111 -43 -79 -26 -108 -166 -138 -186 -154 -79 -64 -54 -33 -15 -11 -27 -23 -13 -6 -12
-8 -1 -7 0 0 0 -3 0 0 -9 0 0 0 0 -2 -16 -1 -5 0 -7 0 0 0 -221 -158 -102 -103 -145 -136 -64 -68 -26 -56 -142 -117 -170 -188 -91 -65 -73 -11 -5 -8 -17 -13 -15 -9 -17 -12
0 -0 -68 -18 -2 0 -0 -1 -0 0 0 0 0 -22 -3 -11 0 -2 0 0 0 -8 -126 -167 -150 -150 -135 -77 -45 -27 -13 -12 -56 -83 -101 -72 -70 -49 -28 -3 -5 -11 -10 -12 -15 -16 -20 -17 -13
-7 -6 -0 -11 0 0 -1 -1 0 -2 -3 0 -6 0 -13 -2 -5 -7 -13 -24 -19 -11 -56 -108 -88 -23 -11 -9 -3 -1 -4 -8 -31 -10 -6 -17 -10 -14 -4 -8 -8 -10 -13 -20 -16 -22 -14 -28 -30
-0 -1 -4 -10 -4 -0 -0 -7 -3 -63 -49 -53 -12 -14 -6 -4 -23 -10 -2 -3 -11 -10 -28 -30 -15 -6 -5 -6 -6 -7 -4 -11 -9 -12 -25 -16 -13 -17 -6 -6 -17 -13 -25 -16 -16 -10 -9 -20 -26
-2 -0 -39 -0 -1 -1 -1 -36 -12 0 -24 0 -4 -49 -29 -0 -2 -9 -8 -30 -6 -11 -4 -3 -3 -18 -21 -6 -10 -8 -16 -17 -20 -24 -28 -13 -10 -9 -6 -7 -11 -9 -3 -18 -11 -12 -11 -15 -17
Wind_Speed
nan nan nan nan nan nan nan nan nan nan nan nan nan nan nan nan nan nan nan nan 33 25 28 27 29 26 25 23 22 27 30 32 34 36 38 38 38 36 32 34 nan nan nan nan nan nan nan nan nan
nan nan nan nan nan nan nan nan nan nan nan nan nan nan nan nan nan nan nan nan 33 28 28 29 33 30 29 25 27 30 32 33 35 37 39 40 39 37 36 nan nan nan nan nan nan nan nan nan nan
nan nan nan nan nan nan nan nan nan nan nan nan nan nan nan 23 nan nan nan 37 35 27 29 30 34 33 34 35 33 35 36 36 34 37 40 40 40 40 41 nan nan nan nan nan nan nan nan nan nan
nan nan nan nan nan nan nan nan nan nan nan nan nan nan nan 42 nan nan nan 37 33 32 31 35 37 37 35 36 35 35 37 38 39 39 43 42 44 44 43 nan nan nan nan nan nan nan nan nan nan
nan nan nan nan nan nan nan nan nan nan nan nan nan nan nan 34 52 nan 35 34 31 34 34 34 36 36 36 34 36 37 39 40 41 42 43 44 45 44 45 43 nan nan nan nan nan nan nan nan nan
nan nan nan nan nan nan nan nan nan nan nan nan nan nan nan nan 46 nan nan 35 29 33 36 33 36 33 27 29 37 37 39 40 41 42 41 42 45 46 44 45 44 nan 38 38 37 36 35 33 31
nan nan nan nan nan nan nan nan nan nan nan nan nan nan nan nan 37 nan nan 33 34 38 37 34 31 30 26 28 36 38 39 40 43 43 41 42 44 44 45 45 44 43 41 39 36 33 32 32 31
nan nan nan nan nan nan nan nan nan nan nan nan nan nan 18 40 40 nan nan nan 35 37 39 35 32 31 31 30 34 36 40 41 44 44 43 43 44 45 45 45 42 40 40 39 37 37 33 32 33
nan nan nan nan nan nan nan nan nan nan nan nan nan nan nan 31 nan nan nan nan nan nan 37 36 37 33 34 33 34 35 40 41 42 43 45 43 38 41 nan nan nan 41 40 40 40 39 40 36 34
nan nan nan nan nan nan nan nan nan nan nan nan nan nan nan 48 nan nan nan nan nan 47 43 44 40 39 37 31 35 37 37 36 38 40 41 39 nan nan nan nan 43 44 40 40 40 41 40 38 37
nan nan nan nan nan nan nan nan nan nan nan nan nan nan nan 41 33 25 nan nan 34 44 48 50 46 33 38 33 34 34 35 37 39 42 41 40 nan nan nan nan nan 37 39 36 39 40 39 38 39
nan nan nan nan nan nan nan nan nan nan nan nan nan nan nan 30 35 31 32 33 35 39 nan 58 21 39 41 37 38 35 35 38 38 42 44 40 nan nan nan nan nan nan 36 37 38 41 41 39 38
nan nan nan nan nan nan nan nan nan nan nan nan nan nan nan 28 37 35 39 nan 48 45 48 56 54 44 43 41 35 37 38 39 41 42 45 43 43 42 nan 43 39 nan 37 38 39 43 42 41 40
nan nan nan nan nan nan nan nan nan nan nan nan nan nan nan nan nan nan nan 51 53 46 45 46 60 51 47 42 37 37 37 43 45 44 47 50 44 43 41 42 41 38 39 39 42 41 41 41 42
nan nan nan nan nan nan nan nan nan nan nan nan nan nan nan 43 nan nan nan 42 47 43 45 49 52 57 46 43 42 37 35 41 44 49 52 54 47 44 45 43 39 39 41 42 43 40 39 40 43
nan nan nan nan nan nan nan nan nan nan nan nan nan nan nan nan nan nan nan 52 54 51 52 52 50 61 51 45 43 38 37 39 44 45 52 60 50 48 44 42 40 37 39 42 41 44 40 40 39
nan nan nan nan nan nan nan nan nan nan nan nan nan nan nan nan nan nan nan 48 52 53 50 53 51 51 51 46 44 40 39 41 44 47 51 55 53 49 43 42 38 40 40 39 41 42 41 39 35
nan nan nan nan nan nan nan nan nan nan nan nan nan nan nan nan nan 47 57 53 49 56 62 56 51 49 52 50 46 42 43 45 45 47 50 51 49 48 40 40 38 41 39 38 39 40 36 35 34
nan nan nan nan nan nan nan nan nan nan nan nan nan nan nan nan nan nan nan 48 43 60 66 63 52 47 50 50 50 46 44 49 50 52 53 49 48 45 41 37 36 37 38 37 38 38 35 32 31
nan nan nan nan nan nan nan nan nan nan nan nan nan nan nan nan nan nan 44 51 56 70 69 65 51 45 46 51 51 48 51 53 55 57 53 46 48 41 38 35 35 39 35 36 34 36 36 34 33
nan nan nan nan nan nan nan nan nan nan nan nan nan nan nan nan nan nan 49 54 65 70 70 68 48 49 47 48 53 52 54 55 52 58 49 47 45 36 34 34 34 37 34 34 35 38 39 36 35
nan nan nan nan nan nan nan nan nan nan nan nan nan nan nan nan nan nan nan 51 56 71 72 70 63 54 51 48 52 51 54 53 54 56 49 45 37 31 32 36 35 32 35 32 37 38 36 33 33
nan nan nan nan nan nan nan nan nan nan nan nan nan nan nan nan nan nan nan nan nan nan nan 54 65 61 50 54 54 56 56 53 53 52 49 41 34 30 33 35 34 35 34 33 38 36 34 33 31
nan nan nan nan nan nan nan nan nan nan nan nan nan nan nan nan nan nan nan nan nan nan nan 42 48 47 50 48 50 49 45 43 48 47 45 37 32 31 33 33 32 33 34 31 37 35 36 32 31
12 nan nan nan nan nan nan nan nan nan nan nan nan nan nan nan nan nan nan nan nan nan nan nan 41 41 41 41 42 34 33 38 42 45 39 33 31 30 30 31 31 33 32 36 36 35 34 34 31
nan nan nan nan nan nan nan nan nan nan nan nan nan nan nan nan nan nan nan nan nan nan nan 36 45 47 42 38 33 35 35 39 41 39 36 32 30 29 31 30 32 32 34 32 34 36 34 29 29
11 nan nan nan 13 nan nan nan nan nan nan nan nan nan nan nan nan nan nan nan nan nan 38 37 40 40 37 35 36 36 34 35 35 36 34 30 31 29 31 31 33 31 31 34 37 30 27 27 31
14 nan 19 29 25 nan nan nan nan nan nan nan nan nan nan 15 nan nan 46 40 41 37 37 35 37 38 37 37 35 33 30 31 34 33 33 32 31 29 33 33 31 29 30 35 32 23 27 32 29
5 12 19 25 nan nan nan nan 10 50 nan nan nan nan 33 nan nan 36 39 42 35 43 43 40 38 37 36 34 32 32 28 33 36 34 31 30 30 33 32 30 29 30 31 28 26 25 30 29 27
14 10 33 nan nan 13 nan nan 40 nan nan nan nan 45 nan 35 51 38 38 41 40 37 41 37 35 35 36 35 33 34 34 33 32 32 30 29 30 27 26 30 30 28 25 24 27 24 23 23 24
Wind_Direction
nan nan nan nan nan nan nan nan nan nan nan nan nan nan nan nan nan nan nan nan 289 307 321 329 334 328 331 334 328 323 327 331 336 334 335 341 343 339 337 335 nan nan nan nan nan nan nan nan nan
nan nan nan nan nan nan nan nan nan nan nan nan nan nan nan nan nan nan nan nan 284 300 315 332 336 332 334 328 330 328 332 333 334 335 335 338 342 337 341 nan nan nan nan nan nan nan nan nan nan
nan nan nan nan nan nan nan nan nan nan nan nan nan nan nan 210 nan nan nan 276 282 298 314 328 334 337 332 331 330 331 339 338 340 336 334 338 341 338 338 nan nan nan nan nan nan nan nan nan nan
nan nan nan nan nan nan nan nan nan nan nan nan nan nan nan 218 nan nan nan 278 280 294 307 318 331 338 332 334 332 338 344 345 340 336 337 340 341 337 337 nan nan nan nan nan nan nan nan nan nan
nan nan nan nan nan nan nan nan nan nan nan nan nan nan nan 238 256 nan 271 273 287 290 296 314 326 331 333 336 342 345 345 344 340 339 340 338 337 339 339 345 nan nan nan nan nan nan nan nan nan
nan nan nan nan nan nan nan nan nan nan nan nan nan nan nan nan 264 nan nan 278 283 286 291 306 323 332 340 346 345 344 344 343 344 342 339 335 337 339 343 347 347 nan 352 351 350 345 342 339 334
nan nan nan nan nan nan nan nan nan nan nan nan nan nan nan nan 271 nan nan 280 285 289 285 293 311 325 329 331 336 338 342 344 344 342 339 335 337 342 346 347 348 348 351 350 352 348 342 337 337
nan nan nan nan nan nan nan nan nan nan nan nan nan nan 256 271 277 nan nan nan 285 284 290 291 301 317 319 321 328 335 340 343 344 343 338 338 343 346 345 347 347 347 349 348 354 353 346 344 341
nan nan nan nan nan nan nan nan nan nan nan nan nan nan nan 222 nan nan nan nan nan nan 289 292 300 308 316 319 325 332 338 342 344 341 340 338 341 344 nan nan nan 347 348 350 350 349 345 347 346
nan nan nan nan nan nan nan nan nan nan nan nan nan nan nan 249 nan nan nan nan nan 290 293 295 299 304 308 311 317 325 332 336 339 340 340 339 nan nan nan nan 346 344 346 348 347 345 341 339 332
nan nan nan nan nan nan nan nan nan nan nan nan nan nan nan 239 252 265 nan nan 293 291 297 293 284 296 308 314 309 314 323 330 336 340 338 339 nan nan nan nan nan 329 343 339 337 336 333 331 332
nan nan nan nan nan nan nan nan nan nan nan nan nan nan nan 245 250 258 271 270 279 288 nan 239 196 308 309 307 305 313 319 327 330 333 335 334 nan nan nan nan nan nan 334 337 330 332 329 328 334
nan nan nan nan nan nan nan nan nan nan nan nan nan nan nan 256 245 241 233 nan 211 248 288 302 308 297 295 299 297 308 316 323 326 327 332 333 332 333 nan 328 327 nan 335 329 329 332 327 326 327
nan nan nan nan nan nan nan nan nan nan nan nan nan nan nan nan nan nan nan 231 241 254 262 271 289 286 296 298 299 302 310 315 320 324 324 333 333 328 326 329 326 325 332 327 330 330 322 322 321
nan nan nan nan nan nan nan nan nan nan nan nan nan nan nan 253 nan nan nan 239 251 259 259 263 271 283 292 293 296 301 307 314 316 321 320 327 331 327 328 327 327 328 324 330 330 326 319 317 317
nan nan nan nan nan nan nan nan nan nan nan nan nan nan nan nan nan nan nan 253 265 267 265 271 274 280 291 291 290 297 303 307 314 316 315 320 328 327 322 325 322 323 323 324 328 321 318 314 310
nan nan nan nan nan nan nan nan nan nan nan nan nan nan nan nan nan nan nan 259 260 264 265 266 267 270 283 284 286 293 299 307 307 310 315 317 322 325 320 317 315 320 320 325 320 315 314 310 309
nan nan nan nan nan nan nan nan nan nan nan nan nan nan nan nan nan 240 260 260 260 265 263 262 263 266 275 280 282 289 292 300 306 310 312 312 316 318 314 311 318 318 321 320 312 312 309 305 307
nan nan nan nan nan nan nan nan nan nan nan nan nan nan nan nan nan nan nan 259 263 263 264 264 264 267 268 274 279 285 293 289 299 307 312 308 311 310 312 313 314 317 318 315 312 310 307 305 306
nan nan nan nan nan nan nan nan nan nan nan nan nan nan nan nan nan nan 248 255 257 263 265 268 268 271 273 277 280 283 288 292 295 301 303 301 304 308 307 312 314 318 313 312 309 306 303 303 307
nan nan nan nan nan nan nan nan nan nan nan nan nan nan nan nan nan nan 237 244 249 256 260 268 274 269 271 279 274 279 280 284 288 294 296 295 298 301 303 310 312 312 313 307 303 305 308 309 308
nan nan nan nan nan nan nan nan nan nan nan nan nan nan nan nan nan nan nan 245 252 256 265 272 275 271 270 277 279 283 281 283 287 289 292 291 291 296 305 308 315 307 307 303 304 308 310 311 306
nan nan nan nan nan nan nan nan nan nan nan nan nan nan nan nan nan nan nan nan nan nan nan 269 268 272 277 279 277 278 283 284 282 284 287 285 282 289 298 300 307 301 301 303 306 310 314 305 303
nan nan nan nan nan nan nan nan nan nan nan nan nan nan nan nan nan nan nan nan nan nan nan 266 272 276 280 280 282 278 281 278 280 281 281 278 278 282 291 298 298 298 298 302 307 305 302 304 310
274 nan nan nan nan nan nan nan nan nan nan nan nan nan nan nan nan nan nan nan nan nan nan nan 269 275 276 281 280 284 272 283 277 282 280 282 282 286 297 300 298 297 302 301 301 302 306 307 305
nan nan nan nan nan nan nan nan nan nan nan nan nan nan nan nan nan nan nan nan nan nan nan 259 258 264 268 273 276 275 277 271 276 279 277 279 286 294 300 299 302 303 302 304 303 303 304 302 301
158 nan nan nan 255 nan nan nan nan nan nan nan nan nan nan nan nan nan nan nan nan nan 256 256 257 258 262 266 268 270 272 277 280 279 283 289 293 294 296 302 298 304 305 304 301 300 300 303 298
145 nan 240 268 271 nan nan nan nan nan nan nan nan nan nan 238 nan nan 238 238 240 243 249 251 255 257 262 264 265 268 270 270 279 280 289 292 289 292 295 296 299 298 300 299 298 303 302 298 297
208 312 266 251 nan nan nan nan 150 217 nan nan nan nan 233 nan nan 243 230 234 235 245 245 245 248 256 258 261 265 266 266 266 274 283 283 281 287 291 296 298 293 297 301 305 304 294 296 298 299
175 192 298 nan nan 300 nan nan 227 nan nan nan nan 211 nan 228 237 223 217 225 235 241 246 246 249 249 250 257 261 261 263 270 273 274 279 284 287 293 297 299 304 304 295 298 296 301 305 305 307